TimeCDT,TemperatureF,Dew PointF,Humidity,Sea Level PressureIn,VisibilityMPH,Wind Direction,Wind SpeedMPH,Gust SpeedMPH,PrecipitationIn,Events,Conditions,WindDirDegrees,DateUTC
12:15 AM,64.4,60.8,88,30.04,10.0,South,5.8,-,N/A,,Clear,190,2012-11-02 05:15:00
12:35 AM,64.4,60.8,88,30.04,10.0,SSW,4.6,-,N/A,,Clear,200,2012-11-02 05:35:00
12:55 AM,64.4,60.8,88,30.04,10.0,SSW,3.5,-,N/A,,Clear,200,2012-11-02 05:55:00
1:15 AM,62.6,60.8,94,30.04,10.0,Calm,Calm,-,N/A,,Clear,0,2012-11-02 06:15:00
1:35 AM,62.6,60.8,94,30.04,10.0,Calm,Calm,-,N/A,,Clear,0,2012-11-02 06:35:00
1:55 AM,62.6,60.8,94,30.03,10.0,SSW,4.6,-,N/A,,Clear,210,2012-11-02 06:55:00
2:15 AM,62.6,60.8,94,30.03,10.0,SSW,4.6,-,N/A,,Clear,210,2012-11-02 07:15:00
2:35 AM,60.8,60.8,100,30.03,10.0,SSW,4.6,-,N/A,,Clear,210,2012-11-02 07:35:00
2:55 AM,62.6,60.8,94,30.03,10.0,SSW,5.8,-,N/A,,Clear,210,2012-11-02 07:55:00
3:15 AM,60.8,60.8,100,30.03,10.0,SSW,5.8,-,N/A,,Clear,210,2012-11-02 08:15:00
3:35 AM,60.8,60.8,100,30.03,10.0,SSW,4.6,-,N/A,,Clear,210,2012-11-02 08:35:00
3:55 AM,60.8,60.8,100,30.03,10.0,SSW,4.6,-,N/A,,Clear,210,2012-11-02 08:55:00
4:15 AM,60.8,60.8,100,30.03,5.0,SW,3.5,-,N/A,,Clear,220,2012-11-02 09:15:00
4:35 AM,60.8,60.8,100,30.04,5.0,SW,3.5,-,N/A,,Clear,220,2012-11-02 09:35:00
4:55 AM,60.8,60.8,100,30.04,3.0,SW,3.5,-,N/A,,Clear,220,2012-11-02 09:55:00
5:15 AM,60.8,60.8,100,30.04,5.0,SSW,5.8,-,N/A,,Clear,210,2012-11-02 10:15:00
5:35 AM,60.8,60.8,100,30.04,4.0,SSW,4.6,-,N/A,,Scattered Clouds,210,2012-11-02 10:35:00
5:55 AM,62.6,62.6,100,30.04,1.8,SSW,5.8,-,N/A,,Overcast,210,2012-11-02 10:55:00
6:15 AM,62.6,62.6,100,30.04,0.2,SSW,5.8,-,N/A,Fog,Fog,210,2012-11-02 11:15:00
6:35 AM,62.6,62.6,100,30.05,0.2,SW,4.6,-,N/A,Fog,Fog,220,2012-11-02 11:35:00
6:55 AM,62.6,62.6,100,30.05,0.2,SSW,5.8,-,N/A,Fog,Fog,210,2012-11-02 11:55:00
7:15 AM,64.4,64.4,100,30.06,0.2,SSW,6.9,-,N/A,Fog,Fog,210,2012-11-02 12:15:00
7:35 AM,64.4,64.4,100,30.06,0.2,SSW,5.8,-,N/A,Fog,Fog,210,2012-11-02 12:35:00
7:55 AM,64.4,64.4,100,30.06,0.2,SSW,5.8,-,N/A,Fog,Fog,210,2012-11-02 12:55:00
8:15 AM,64.4,64.4,100,30.07,0.2,SSW,6.9,-,N/A,Fog,Fog,210,2012-11-02 13:15:00
8:35 AM,64.4,64.4,100,30.08,0.2,SSW,5.8,-,N/A,Fog,Fog,210,2012-11-02 13:35:00
8:55 AM,66.2,66.2,100,30.08,3.0,SSW,6.9,-,N/A,,Overcast,210,2012-11-02 13:55:00
9:15 AM,66.2,66.2,100,30.09,5.0,SW,8.1,-,N/A,,Overcast,220,2012-11-02 14:15:00
9:35 AM,66.2,66.2,100,30.09,9.0,SW,10.4,-,N/A,,Overcast,220,2012-11-02 14:35:00
9:55 AM,68.0,68.0,100,30.09,10.0,SW,10.4,-,N/A,,Mostly Cloudy,220,2012-11-02 14:55:00
10:15 AM,69.8,69.8,100,30.09,10.0,SW,6.9,-,N/A,,Mostly Cloudy,220,2012-11-02 15:15:00
10:35 AM,71.6,66.2,83,30.09,10.0,SW,10.4,-,N/A,,Scattered Clouds,230,2012-11-02 15:35:00
10:55 AM,73.4,66.2,78,30.09,10.0,SSW,11.5,17.3,N/A,,Scattered Clouds,210,2012-11-02 15:55:00
11:15 AM,73.4,66.2,78,30.09,10.0,SW,13.8,17.3,N/A,,Partly Cloudy,220,2012-11-02 16:15:00
11:35 AM,75.2,66.2,73,30.08,10.0,SSW,11.5,-,N/A,,Partly Cloudy,210,2012-11-02 16:35:00
11:55 AM,77.0,64.4,65,30.08,10.0,SW,13.8,18.4,N/A,,Scattered Clouds,220,2012-11-02 16:55:00
12:15 PM,78.8,64.4,61,30.06,10.0,South,13.8,-,N/A,,Scattered Clouds,190,2012-11-02 17:15:00
12:35 PM,78.8,64.4,61,30.05,10.0,SSW,11.5,16.1,N/A,,Partly Cloudy,200,2012-11-02 17:35:00
12:55 PM,80.6,64.4,58,30.04,10.0,SSW,12.7,16.1,N/A,,Clear,200,2012-11-02 17:55:00
1:15 PM,80.6,62.6,54,30.03,10.0,SSW,13.8,18.4,N/A,,Partly Cloudy,200,2012-11-02 18:15:00
1:35 PM,80.6,62.6,54,30.02,10.0,South,8.1,18.4,N/A,,Clear,190,2012-11-02 18:35:00
1:55 PM,82.4,60.8,48,30.01,10.0,South,6.9,18.4,N/A,,Clear,190,2012-11-02 18:55:00
2:15 PM,82.4,59.0,45,30.00,10.0,South,12.7,18.4,N/A,,Clear,180,2012-11-02 19:15:00
2:35 PM,82.4,59.0,45,29.99,-9999.0,South,11.5,-,N/A,,Clear,170,2012-11-02 19:35:00
2:55 PM,82.4,57.2,42,29.98,-9999.0,SSE,10.4,17.3,N/A,,Clear,150,2012-11-02 19:55:00
3:35 PM,82.4,53.6,37,29.97,-9999.0,South,9.2,-,N/A,,Clear,190,2012-11-02 20:35:00
3:55 PM,82.4,53.6,37,29.97,10.0,SSW,13.8,-,N/A,,Partly Cloudy,200,2012-11-02 20:55:00
4:15 PM,82.4,51.8,35,29.97,-9999.0,South,8.1,-,N/A,,Partly Cloudy,170,2012-11-02 21:15:00
4:35 PM,82.4,53.6,37,29.97,10.0,South,12.7,-,N/A,,Clear,170,2012-11-02 21:35:00
4:55 PM,82.4,55.4,39,29.97,10.0,South,6.9,-,N/A,,Partly Cloudy,170,2012-11-02 21:55:00
5:35 PM,80.6,55.4,42,29.97,10.0,SE,9.2,-,N/A,,Partly Cloudy,140,2012-11-02 22:35:00
5:55 PM,78.8,57.2,47,29.97,10.0,SSE,9.2,-,N/A,,Clear,150,2012-11-02 22:55:00
6:35 PM,75.2,57.2,53,29.98,10.0,SE,10.4,16.1,N/A,,Clear,130,2012-11-02 23:35:00
6:55 PM,75.2,59.0,57,29.98,10.0,SE,8.1,-,N/A,,Clear,140,2012-11-02 23:55:00
7:15 PM,73.4,60.8,65,29.99,10.0,SE,6.9,-,N/A,,Clear,140,2012-11-03 00:15:00
7:35 PM,71.6,60.8,69,30.00,10.0,SE,5.8,-,N/A,,Clear,140,2012-11-03 00:35:00
7:55 PM,71.6,60.8,69,30.00,10.0,SE,5.8,-,N/A,,Clear,140,2012-11-03 00:55:00
8:15 PM,69.8,60.8,73,30.01,10.0,SE,5.8,-,N/A,,Clear,140,2012-11-03 01:15:00
8:35 PM,69.8,60.8,73,30.01,10.0,SE,4.6,-,N/A,,Clear,130,2012-11-03 01:35:00
8:55 PM,69.8,60.8,73,30.02,10.0,SE,5.8,-,N/A,,Clear,140,2012-11-03 01:55:00
9:15 PM,68.0,60.8,78,30.02,10.0,SSE,5.8,-,N/A,,Clear,150,2012-11-03 02:15:00
9:35 PM,68.0,62.6,83,30.03,10.0,SE,5.8,-,N/A,,Clear,140,2012-11-03 02:35:00
9:55 PM,68.0,62.6,83,30.03,10.0,SSE,4.6,-,N/A,,Clear,150,2012-11-03 02:55:00
10:35 PM,66.2,62.6,88,30.04,10.0,SSE,5.8,-,N/A,,Clear,150,2012-11-03 03:35:00
10:55 PM,66.2,62.6,88,30.04,10.0,SSE,5.8,-,N/A,,Clear,150,2012-11-03 03:55:00
11:15 PM,66.2,64.4,94,30.04,10.0,SSE,6.9,-,N/A,,Clear,150,2012-11-03 04:15:00
11:35 PM,66.2,64.4,94,30.04,10.0,SSE,6.9,-,N/A,,Clear,150,2012-11-03 04:35:00
11:55 PM,66.2,64.4,94,30.04,10.0,SSE,6.9,-,N/A,,Clear,150,2012-11-03 04:55:00